#timestamp,LO_Frequency,Hit,StdDev 
1581519615.1,286047002.1,N
1581519635.9,286047004.3,N
1581519655.7,286047006.0,N
1581519675.6,286047003.9,N
1581519695.4,286047003.6,N
1581519715.2,286047003.2,N
1581519735.1,286047004.1,N
1581519736.0,286047004.1,N
1581519755.8,286047004.6,N
1581519775.6,286047006.0,Y
1581519795.5,286046999.8,P
1581519815.3,286047002.6,N
1581519835.2,286047002.0,N
1581519855.9,286047001.9,N
1581519875.7,286047006.0,Y
1581519895.6,286047001.6,P
1581519915.4,286047001.9,P
1581519935.2,286047001.5,P
1581519955.1,286047002.4,Y
1581519956.0,286047002.4,P
1581519975.8,286046999.7,N
1581519995.7,286047000.3,N
1581520015.5,286046998.7,N
1581520035.3,286046998.6,N
1581520055.2,286046998.4,N
1581520075.0,286046999.1,N
1581520075.9,286046999.1,N
1581520095.8,286046999.2,N
1581520115.6,286046999.1,N
1581520135.4,286046997.0,N
1581520155.3,286046997.6,N
1581520175.1,286046999.4,N
1581520195.9,286046999.0,N
1581520215.7,286046999.0,N
1581520235.5,286046999.4,N
1581520255.4,286046998.5,N
1581520275.2,286046998.5,N
1581520295.0,286046999.6,N
1581520295.9,286046999.6,N
1581520315.8,286046996.5,Y
1581520335.6,286047002.8,P
1581520355.5,286047002.8,N
1581520375.3,286047002.2,N
1581520395.1,286047002.5,N
1581520415.9,286047002.1,N
1581520435.7,286047001.9,N
1581520455.6,286047002.7,N
1581520475.4,286046999.9,N
1581520495.2,286047004.4,Y
1581520515.1,286047001.6,P
1581520516.0,286047001.6,P
1581520535.8,286047002.8,P
1581520555.7,286047002.8,Y
1581520575.5,286046998.3,P
1581520595.3,286046997.7,N
1581520615.2,286046997.2,N
1581520635.0,286046996.8,N
1581520635.9,286046996.8,N
1581520655.8,286046995.5,N
1581520675.6,286046994.9,N
1581520695.4,286046996.2,N
1581520715.3,286046995.4,N
1581520735.1,286046995.7,N
1581520755.8,286046996.9,N
1581520775.7,286046996.4,N
1581520795.5,286046992.5,Y
1581520815.4,286046993.7,P
1581520835.2,286046998.0,N
1581520855.0,286046996.6,N
1581520855.9,286046996.6,N
1581520875.8,286047000.8,N
1581520895.6,286046996.5,N
1581520915.5,286046995.4,N
1581520935.9,286046996.9,N
1581520955.7,286046999.5,N
1581520975.5,286046999.1,N
1581520995.4,286046999.3,N
1581521015.2,286046996.7,N
1581521035.1,286046996.9,N
1581521036.0,286046996.9,N
1581521055.8,286046997.2,N
1581521075.6,286046997.8,N
1581521095.5,286046999.6,N
1581521115.3,286046995.5,N
1581521135.1,286046997.1,N
1581521155.9,286046995.3,N
1581521175.7,286046997.2,N
1581521195.6,286046998.5,N
1581521215.4,286046998.6,N
1581521235.2,286047000.4,N
1581521255.1,286046999.8,N
1581521256.0,286046999.8,N
1581521275.8,286046998.1,N
1581521295.6,286046995.4,N
1581521315.5,286046997.6,N
1581521335.3,286046995.1,N
1581521355.2,286046995.8,N
1581521375.9,286046997.6,N
1581521395.7,286046999.5,N
1581521415.6,286046996.5,N
1581521435.4,286046995.8,N
1581521455.2,286046998.8,N
1581521475.1,286046996.7,N
1581521476.0,286046996.7,N
1581521495.8,286047001.0,N
1581521515.7,286046998.4,N
1581521535.5,286046998.1,N
1581521555.3,286046998.7,N
1581521575.2,286047000.6,N
1581521595.0,286046998.2,N
1581521625.9,286046998.4,E
1581521635.9,286047002.7,N
1581521655.7,286047000.6,P
1581521675.6,286047003.8,P
1581521695.4,286047005.3,Y
1581521715.2,286047002.6,P
1581521735.1,286047003.7,P
1581521736.0,286047003.7,P
1581521755.8,286047003.7,Y
1581521775.7,286046999.9,P
1581521795.5,286046999.7,N
1581521815.3,286047000.0,N
1581521835.2,286047002.1,N
1581521855.9,286047002.1,N
1581521875.7,286047000.4,N
1581521895.6,286046998.7,N
1581521915.4,286047000.0,N
1581521935.3,286047000.4,N
1581521955.1,286047000.5,N
1581521956.0,286047000.5,N
1581521975.8,286046999.4,N
1581521995.7,286046998.9,N
1581522015.5,286046999.4,N
1581522035.3,286046997.0,N
1581522055.2,286046997.5,N
1581522075.0,286046996.7,N
1581522075.9,286046996.7,N
1581522095.8,286046995.2,N
1581522115.6,286046994.3,N
1581522135.4,286046992.5,Y
1581522155.3,286046993.4,P
1581522175.1,286046996.4,N
1581522195.8,286046996.4,N
1581522215.7,286046997.9,N
1581522235.5,286046995.8,N
1581522255.4,286046996.4,N
1581522275.2,286046995.0,Y
1581522295.0,286047001.5,P
1581522295.9,286047001.5,N
1581522315.8,286047000.1,N
1581522335.6,286047002.5,N
1581522355.5,286047002.2,N
1581522375.3,286047002.0,N
1581522395.1,286047000.3,N
1581522415.9,286046999.8,N
1581522435.7,286047002.6,N
1581522455.5,286047000.2,N
1581522475.4,286047000.2,N
1581522495.2,286047001.5,N
1581522515.1,286047002.2,N
1581522516.0,286047002.2,N
1581522535.8,286047002.0,N
1581522555.6,286047004.2,N
1581522575.5,286047001.9,N
1581522595.3,286047001.4,N
1581522615.1,286047004.3,N
1581522635.9,286047001.5,N
1581522655.7,286047002.8,N
1581522675.6,286046999.8,N
1581522695.4,286046998.7,N
1581522715.2,286047001.2,N
1581522735.1,286047002.6,N
1581522736.0,286047002.6,N
1581522755.8,286047003.0,N
1581522775.6,286047001.3,N
1581522795.5,286047001.4,N
1581522815.3,286047004.1,N
1581522835.2,286047002.9,N
1581522855.9,286047001.4,N
1581522875.7,286047003.9,N
1581522895.6,286047003.3,N
1581522915.4,286047006.0,Y
1581522935.3,286046999.9,P
1581522955.1,286046997.4,N
1581522956.0,286046997.4,N
1581522975.8,286046996.0,N
1581522995.7,286046997.0,N
1581523015.5,286046998.5,N
1581523035.4,286046996.9,N
1581523055.2,286046998.7,N
1581523075.0,286046999.3,N
1581523075.9,286046999.3,N
1581523095.8,286046999.0,N
1581523115.6,286047001.2,N
1581523135.4,286046999.5,N
1581523155.3,286046998.7,N
1581523175.1,286046999.1,N
1581523195.9,286047001.0,N
